Temp
6 6 6 6 6 5 5 5 4 4 3 2 1 1 1 0 -0 -0 -1 -1 -1 -2 -4 -3 -5 -6 -5 -5 -5 -5 -5 -5 -4 -4 -4 -4 -3 -3
6 5 5 5 4 4 4 4 4 3 3 1 1 0 -0 -0 -1 -1 -2 -2 -2 -2 -3 -4 -4 -5 -6 -6 -6 -6 -6 -5 -5 -5 -5 -5 -4 -3
5 4 5 4 3 3 3 3 3 2 2 2 0 -0 -0 -1 -2 -3 -3 -2 -2 -2 -3 -4 -5 -4 -3 -4 -5 -6 -6 -6 -6 -6 -6 -6 -5 -4
3 3 3 2 3 3 3 2 2 2 1 0 -0 -0 -2 -3 -3 -2 -2 -3 -3 -3 -3 -4 -4 -3 -4 -5 -6 -6 -6 -7 -7 -7 -6 -6 -5 -5
1 2 2 2 2 2 2 2 1 0 -1 -1 -1 -3 -4 -5 -5 -4 -4 -3 -3 -3 -3 -3 -3 -3 -4 -6 -7 -7 -7 -6 -7 -7 -6 -6 -6 -6
2 2 2 2 2 2 2 1 0 -0 -1 -2 -4 -4 -5 -5 -5 -4 -2 -3 -3 -3 -3 -4 -4 -4 -5 -5 -6 -5 -6 -6 -7 -7 -7 -7 -7 -6
3 2 2 2 1 1 0 -0 -1 -1 -2 -3 -4 -5 -5 -5 -5 -5 -5 -4 -3 -4 -4 -3 -4 -5 -6 -6 -5 -5 -7 -7 -7 -7 -7 -7 -7 -7
2 2 1 1 1 0 -0 -1 -1 -3 -3 -4 -5 -5 -6 -6 -5 -6 -5 -5 -5 -5 -5 -4 -6 -6 -6 -5 -5 -5 -7 -7 -7 -7 -7 -7 -7 -7
1 1 1 1 0 -0 -1 -1 -3 -4 -6 -5 -5 -5 -5 -6 -6 -5 -6 -6 -6 -6 -7 -5 -6 -5 -5 -5 -5 -6 -7 -8 -7 -7 -7 -7 -7 -7
1 0 0 -1 -1 -2 -3 -4 -5 -5 -6 -6 -5 -6 -6 -6 -6 -7 -7 -6 -6 -6 -7 -7 -6 -6 -5 -5 -6 -7 -7 -8 -8 -7 -7 -7 -8 -8
-0 -1 -1 -1 -2 -3 -3 -4 -4 -5 -5 -6 -6 -5 -6 -7 -9 -8 -8 -9 -9 -7 -8 -9 -8 -7 -7 -5 -6 -7 -7 -8 -9 -9 -8 -8 -8 -8
-1 -1 -2 -2 -2 -3 -3 -3 -4 -5 -5 -5 -6 -7 -8 -7 -8 -9 -9 -10 -10 -10 -8 -10 -10 -10 -10 -9 -7 -7 -8 -8 -8 -9 -9 -9 -9 -9
-1 -2 -2 -2 -3 -3 -4 -4 -5 -5 -6 -6 -7 -7 -7 -8 -8 -7 -8 -9 -11 -11 -9 -11 -11 -10 -10 -10 -9 -9 -9 -9 -9 -9 -9 -9 -9 -9
-2 -2 -3 -3 -3 -4 -4 -5 -6 -6 -6 -6 -7 -7 -7 -7 -7 -7 -8 -8 -8 -9 -9 -10 -10 -10 -10 -10 -10 -10 -9 -9 -9 -9 -9 -9 -9 -9
-2 -2 -3 -3 -4 -4 -5 -6 -6 -6 -7 -7 -7 -7 -7 -8 -8 -8 -8 -8 -8 -9 -9 -10 -11 -11 -11 -11 -11 -10 -10 -10 -10 -10 -9 -9 -10 -9
-2 -3 -3 -4 -5 -5 -6 -6 -7 -7 -7 -7 -7 -8 -8 -8 -8 -9 -9 -9 -9 -8 -9 -11 -11 -11 -10 -10 -10 -10 -10 -10 -10 -10 -10 -10 -9 -9
-3 -4 -4 -4 -5 -5 -6 -6 -7 -7 -7 -8 -8 -8 -9 -9 -9 -9 -10 -10 -11 -10 -9 -9 -10 -10 -10 -10 -10 -10 -10 -10 -10 -10 -10 -10 -10 -9
-4 -4 -4 -4 -5 -5 -6 -7 -7 -8 -8 -8 -9 -9 -9 -9 -10 -10 -10 -12 -12 -11 -11 -11 -10 -9 -9 -8 -10 -11 -11 -11 -10 -10 -10 -10 -9 -9
-3 -4 -5 -5 -6 -6 -7 -7 -7 -8 -8 -9 -9 -9 -10 -10 -10 -10 -11 -12 -11 -11 -12 -12 -12 -11 -11 -11 -9 -10 -11 -11 -11 -10 -10 -10 -10 -9
-5 -5 -6 -6 -7 -7 -7 -7 -8 -8 -9 -9 -9 -10 -10 -10 -10 -11 -11 -12 -12 -12 -11 -11 -11 -11 -11 -12 -12 -10 -11 -11 -12 -11 -11 -10 -10 -10
-5 -6 -6 -6 -6 -7 -7 -8 -8 -9 -9 -9 -10 -10 -10 -11 -11 -11 -11 -11 -11 -11 -11 -11 -11 -12 -11 -10 -11 -10 -10 -11 -12 -12 -12 -11 -11 -10
-6 -6 -6 -6 -6 -7 -8 -8 -9 -9 -10 -10 -10 -10 -11 -11 -11 -11 -11 -11 -11 -11 -12 -11 -10 -11 -11 -12 -12 -11 -11 -11 -11 -11 -12 -12 -12 -12
-6 -7 -6 -7 -7 -8 -8 -9 -9 -10 -10 -10 -10 -10 -11 -11 -11 -11 -11 -11 -11 -11 -11 -10 -10 -11 -11 -11 -12 -11 -11 -11 -11 -11 -11 -11 -12 -11
Height
1527 1531 1532 1534 1535 1536 1536 1539 1539 1541 1542 1543 1544 1541 1539 1537 1535 1533 1530 1528 1522 1518 1516 1514 1510 1506 1501 1499 1498 1493 1490 1486 1484 1479 1476 1473 1469 1464
1528 1532 1532 1534 1535 1534 1534 1536 1538 1538 1538 1539 1540 1537 1534 1533 1532 1529 1526 1522 1518 1515 1512 1509 1505 1501 1497 1495 1490 1488 1484 1481 1479 1475 1472 1467 1463 1460
1529 1530 1529 1531 1533 1532 1533 1536 1537 1536 1534 1536 1537 1532 1531 1529 1529 1525 1520 1517 1513 1511 1507 1504 1500 1497 1491 1487 1484 1483 1480 1477 1474 1469 1464 1460 1457 1455
1525 1529 1530 1531 1531 1533 1532 1534 1534 1532 1532 1534 1533 1530 1529 1526 1524 1519 1516 1513 1510 1508 1504 1501 1496 1492 1487 1484 1482 1481 1478 1474 1467 1462 1458 1455 1453 1449
1526 1527 1529 1530 1531 1532 1532 1532 1531 1530 1529 1529 1529 1529 1528 1526 1522 1518 1514 1512 1507 1503 1499 1496 1493 1489 1483 1482 1481 1477 1472 1466 1461 1460 1455 1452 1448 1444
1525 1526 1529 1530 1531 1531 1529 1528 1528 1529 1528 1525 1525 1525 1524 1521 1518 1513 1509 1505 1504 1501 1495 1492 1488 1483 1482 1480 1477 1471 1466 1462 1459 1456 1452 1448 1444 1440
1521 1523 1527 1530 1529 1529 1528 1528 1528 1528 1525 1523 1522 1522 1520 1517 1512 1509 1507 1501 1499 1497 1491 1489 1486 1481 1478 1475 1470 1466 1462 1460 1457 1452 1448 1444 1440 1435
1521 1523 1525 1526 1526 1527 1527 1527 1527 1524 1522 1520 1519 1517 1516 1513 1511 1507 1503 1497 1493 1495 1487 1483 1482 1479 1474 1470 1465 1462 1461 1458 1454 1449 1445 1440 1436 1431
1522 1522 1523 1525 1524 1523 1524 1523 1523 1521 1520 1517 1516 1514 1510 1511 1506 1504 1503 1500 1492 1488 1485 1479 1478 1473 1470 1465 1461 1460 1458 1454 1450 1446 1441 1437 1432 1427
1521 1522 1521 1522 1523 1524 1523 1521 1520 1518 1516 1516 1514 1513 1511 1509 1503 1503 1499 1494 1489 1488 1483 1476 1474 1468 1464 1463 1459 1458 1454 1451 1447 1443 1438 1433 1428 1423
1519 1520 1520 1520 1522 1521 1520 1521 1517 1516 1513 1513 1513 1510 1509 1507 1505 1498 1495 1491 1486 1482 1481 1476 1471 1463 1460 1458 1456 1454 1450 1446 1443 1439 1434 1429 1424 1418
1520 1519 1520 1519 1520 1520 1519 1517 1515 1513 1512 1510 1510 1509 1507 1506 1502 1498 1493 1490 1486 1479 1479 1474 1469 1465 1455 1452 1452 1449 1445 1442 1438 1434 1430 1425 1419 1413
1517 1517 1519 1519 1518 1517 1516 1515 1512 1511 1510 1506 1506 1508 1504 1504 1500 1495 1493 1489 1486 1482 1478 1474 1468 1466 1464 1453 1448 1446 1442 1437 1434 1430 1426 1421 1414 1408
1516 1516 1515 1516 1516 1515 1513 1512 1510 1507 1506 1505 1504 1505 1504 1500 1497 1494 1491 1488 1483 1479 1475 1473 1470 1466 1460 1454 1446 1441 1439 1435 1431 1427 1422 1416 1410 1405
1514 1514 1513 1514 1514 1513 1511 1509 1507 1506 1506 1502 1504 1501 1500 1498 1496 1492 1489 1484 1481 1477 1474 1471 1468 1463 1459 1453 1446 1439 1435 1431 1429 1424 1417 1412 1407 1402
1513 1512 1513 1513 1511 1509 1508 1507 1506 1504 1503 1502 1501 1500 1498 1496 1493 1488 1484 1481 1477 1475 1473 1469 1465 1461 1454 1450 1445 1439 1436 1432 1427 1421 1414 1409 1405 1400
1511 1511 1510 1509 1507 1507 1507 1505 1504 1503 1502 1500 1499 1498 1496 1493 1490 1487 1483 1480 1477 1472 1468 1465 1461 1458 1454 1448 1443 1439 1435 1431 1426 1420 1413 1408 1404 1399
1509 1508 1507 1507 1506 1505 1504 1504 1502 1501 1500 1498 1497 1495 1493 1491 1488 1486 1483 1480 1475 1471 1467 1463 1458 1453 1449 1445 1443 1438 1433 1428 1423 1418 1414 1408 1403 1400
1507 1506 1506 1505 1504 1503 1502 1501 1500 1499 1498 1496 1495 1494 1491 1489 1487 1484 1481 1478 1474 1470 1467 1463 1458 1454 1448 1443 1440 1438 1432 1427 1422 1417 1413 1409 1404 1400
1505 1504 1504 1503 1502 1501 1499 1498 1498 1497 1496 1495 1493 1491 1490 1487 1485 1483 1480 1477 1473 1469 1465 1462 1457 1454 1451 1446 1440 1435 1432 1426 1422 1416 1412 1408 1405 1400
1503 1503 1501 1500 1499 1498 1497 1496 1496 1495 1494 1493 1491 1490 1488 1486 1484 1482 1479 1477 1473 1468 1464 1460 1457 1454 1450 1445 1439 1433 1430 1427 1422 1416 1412 1407 1402 1399
1501 1500 1499 1498 1496 1496 1495 1494 1494 1493 1492 1491 1489 1487 1486 1485 1483 1480 1478 1475 1471 1467 1464 1460 1456 1452 1448 1443 1438 1433 1428 1424 1421 1416 1413 1410 1405 1400
1497 1497 1496 1495 1494 1493 1492 1492 1491 1491 1489 1488 1487 1485 1484 1483 1481 1479 1476 1473 1470 1466 1462 1458 1454 1451 1447 1442 1438 1432 1428 1423 1419 1415 1413 1409 1406 1403
Wind_Speed
18 16 13 9 6 5 5 4 4 5 6 10 11 16 21 23 22 24 20 19 19 19 19 20 20 20 19 20 22 22 23 23 23 24 24 25 26 26
14 11 7 6 6 5 4 4 6 7 5 8 14 19 20 21 22 19 18 18 19 19 20 20 21 20 20 24 23 23 23 23 22 22 23 24 24 26
11 9 7 7 6 4 3 4 5 6 8 12 15 16 18 19 19 19 17 17 18 18 18 19 19 22 24 23 24 23 23 22 22 23 25 25 24 26
9 8 7 6 4 4 3 4 6 8 9 12 14 15 16 18 18 15 16 18 19 18 17 17 20 23 22 22 21 22 20 21 23 25 25 24 24 25
10 9 6 4 2 2 3 5 7 7 9 12 14 15 16 15 17 19 19 19 18 18 14 18 21 21 21 19 19 19 21 25 24 23 24 23 25 27
9 5 3 2 2 4 5 6 7 9 10 11 12 14 13 14 18 20 20 21 20 18 17 20 21 20 19 18 20 21 22 25 24 24 25 25 25 27
8 6 4 3 3 5 6 7 9 10 10 11 12 11 13 16 19 21 23 22 20 20 23 21 21 20 21 19 22 22 21 23 24 25 25 26 27 27
7 6 3 2 3 5 6 8 9 8 9 10 10 12 14 16 19 21 22 23 25 23 29 29 21 21 23 22 23 17 21 24 25 26 27 28 27 26
5 3 1 3 4 5 8 9 11 13 12 11 13 14 16 17 19 19 19 21 22 25 26 30 22 25 24 23 18 16 23 25 24 24 27 26 25 26
5 3 1 2 4 5 7 7 8 9 11 12 13 13 14 16 15 17 19 22 22 21 19 24 27 31 28 24 14 20 26 24 21 26 26 24 26 25
3 1 2 4 5 7 7 9 9 9 11 15 13 12 12 13 14 18 22 25 28 28 17 23 32 36 34 26 21 31 27 23 24 27 23 24 26 27
1 1 3 4 7 8 9 10 10 11 12 11 10 10 9 13 15 16 20 21 23 24 21 31 31 32 29 28 36 33 32 29 25 20 22 25 32 26
1 3 4 6 8 9 10 10 10 11 10 10 10 10 11 13 14 14 17 19 20 21 25 23 29 27 28 38 37 37 33 30 26 22 24 33 28 22
3 5 6 7 9 9 10 9 9 11 12 12 11 11 12 14 16 17 17 19 20 21 22 17 20 25 28 34 38 36 31 28 21 20 33 31 20 19
4 5 8 9 10 10 10 11 11 11 11 12 12 13 14 16 17 18 19 19 19 19 17 16 17 21 23 29 31 32 29 28 21 34 35 23 21 21
5 6 7 8 8 10 10 10 10 11 12 13 13 14 15 16 18 20 22 23 22 19 16 16 19 22 23 22 24 25 22 23 30 30 28 23 20 19
6 7 9 10 10 11 11 12 12 13 13 12 13 15 16 17 18 19 21 22 22 23 22 20 21 18 19 23 19 20 20 24 25 27 26 24 20 17
8 9 10 10 12 12 12 12 11 11 12 13 14 14 16 17 18 19 19 20 21 20 22 23 23 25 25 24 18 19 23 24 26 26 22 22 20 14
9 9 10 11 12 13 12 11 11 11 12 12 13 13 14 15 16 18 19 20 21 22 22 21 21 21 27 31 28 20 24 22 26 26 22 21 18 13
8 10 11 12 13 12 11 11 10 10 11 11 12 13 14 14 15 17 18 21 22 22 22 21 21 19 23 25 26 23 18 21 23 25 24 21 16 9
10 11 12 13 13 12 11 11 10 10 11 12 12 13 13 12 13 15 17 18 18 20 21 21 19 17 20 21 25 26 21 18 18 19 19 22 25 13
12 12 13 14 13 13 12 11 10 10 10 11 11 11 11 10 12 15 16 20 20 19 18 19 20 20 20 21 24 25 24 23 20 14 11 15 19 17
14 15 14 14 13 14 13 11 10 10 10 11 11 10 9 9 12 13 16 19 18 16 18 21 23 21 22 22 21 23 21 24 23 17 14 14 12 10
Wind_Direction
177 179 179 184 208 220 215 221 231 216 202 239 260 285 297 305 314 316 320 325 329 331 327 329 327 327 327 326 326 322 325 325 323 319 319 318 320 318
175 179 194 218 210 208 225 245 259 256 240 259 271 287 298 308 309 313 321 327 331 329 330 328 332 331 331 328 328 327 325 323 319 315 316 318 320 318
183 193 183 186 206 218 233 266 267 274 286 281 283 294 298 304 310 317 323 329 330 328 332 332 333 330 333 334 333 330 326 319 313 314 319 322 321 321
176 184 188 190 202 230 255 275 295 307 304 299 302 305 307 309 309 318 324 329 332 331 333 333 334 330 334 336 333 327 320 318 322 324 324 325 318 317
176 185 186 191 216 258 293 311 313 308 307 303 308 310 307 313 311 320 327 332 334 331 331 338 334 332 337 332 323 319 326 332 336 335 327 321 318 317
174 171 192 225 274 302 308 316 313 306 306 306 300 306 310 306 311 321 330 337 338 340 334 343 334 336 334 331 325 328 331 334 334 333 329 326 323 318
163 170 198 234 303 314 317 312 307 305 309 303 305 304 306 311 324 331 329 336 339 344 332 339 336 342 341 336 335 331 334 331 333 330 327 327 325 322
168 172 185 290 314 309 316 315 313 319 320 317 312 312 317 320 323 330 332 334 337 345 334 335 340 342 340 340 337 335 337 331 328 326 328 326 324 321
164 153 223 284 312 320 325 328 330 329 327 331 319 322 321 320 324 325 325 326 331 340 329 328 342 339 341 343 338 343 332 333 328 328 328 326 327 324
178 196 211 329 334 328 316 308 314 318 321 326 322 316 314 316 322 323 328 327 331 341 335 328 341 335 338 346 333 337 333 330 329 327 324 322 323 325
151 106 342 323 330 333 323 315 325 314 321 323 318 314 319 326 332 330 330 333 334 339 348 332 334 333 334 342 338 337 335 329 325 326 323 325 330 326
160 303 327 331 327 325 319 317 322 326 320 319 320 324 319 317 322 313 321 327 334 338 332 332 330 339 332 331 330 333 334 333 333 330 327 324 327 323
274 329 339 329 328 326 327 326 322 322 322 329 327 316 318 314 317 328 332 334 327 316 324 326 325 328 321 318 322 327 331 337 339 334 325 325 329 327
308 328 340 320 320 326 329 331 330 336 333 329 321 318 322 329 335 337 334 333 330 323 326 323 312 312 317 315 315 323 332 339 336 330 325 331 336 337
319 313 328 328 325 328 334 335 328 325 323 328 328 334 338 338 335 333 335 333 336 337 337 327 318 317 312 311 316 325 333 340 339 330 329 337 339 343
317 321 317 319 323 326 326 324 324 326 326 330 333 332 332 334 338 342 342 342 340 345 351 347 336 328 333 338 327 331 341 334 331 337 340 345 347 342
317 321 320 323 323 319 318 319 320 319 324 327 328 331 333 336 339 343 343 344 341 342 345 344 345 340 338 348 340 337 330 330 339 345 347 352 3 2
313 312 311 315 317 316 312 308 308 316 322 325 327 328 331 335 338 340 342 342 339 347 345 342 344 343 346 349 358 342 337 338 343 350 352 348 355 8
303 311 316 318 316 311 308 312 316 319 320 320 324 328 332 334 335 340 342 341 343 345 341 341 344 347 345 336 341 354 342 343 341 347 352 356 349 359
317 319 318 315 313 311 312 310 310 315 319 321 326 330 332 332 337 340 342 344 339 334 339 347 348 354 338 329 330 349 357 344 340 339 346 351 357 342
314 314 314 315 314 312 310 308 309 316 318 320 324 328 331 329 336 340 341 336 333 337 340 343 349 343 338 342 345 346 356 357 350 337 337 349 355 2
307 313 310 308 313 316 311 305 302 307 312 316 321 325 328 329 336 337 346 340 337 337 337 342 348 347 349 347 340 345 346 349 355 358 356 355 342 344
302 304 307 309 309 307 304 300 296 303 311 314 316 320 325 329 336 340 344 337 332 338 339 343 347 349 349 347 344 344 344 347 352 360 15 1 354 349